Regional Weather Roundup
Issued by NWS Goodland, KS

Home | Current Version | Previous Version | Text Only | Print | Product List | Glossary Off
Versions: 1 2 3 4 5 6 7 8 9 10 11 12 13 14 15 16 17 18 19 20 21 22 23 24 25 26 27 28 29 30 31 32 33 34 35 36 37 38 39 40 41 42 43 44 45 46 47 48 49 50

000
ASUS43 KGLD 250608
RWRGLD

GOODLAND FORECAST AREA HOURLY WEATHER ROUNDUP
NATIONAL WEATHER SERVICE GOODLAND KS
1200 AM MDT THU MAY 25 2017

...OFFICIAL OBSERVATIONS...

CITY           SKY/WX    TMP DP  RH WIND       PRES   REMARKS
GOODLAND KS    CLEAR     56  46  69 S16       29.57F
HILL CITY KS   CLEAR     54  46  74 S10       29.62F
IMPERIAL NEB   CLEAR     57  44  62 S16       29.52F
MCCOOK NEB     CLEAR     55  45  68 SE12      29.57F
AKRON CO       CLEAR     62  42  47 S16G26    29.57S
BURLINGTON CO  CLEAR     58  47  66 S17G25    29.60F
LIMON CO       CLEAR     47  42  83 SW3       29.66S
$$

...UNOFFICIAL OBSERVATIONS...

CITY           SKY/WX    TMP DP  RH WIND       PRES   REMARKS
LENORA KS        N/A     54  32  43 MISG        N/A
NORTON KS      CLEAR     54  43  66 SE13      29.60S
SHARON SPRINGS   N/A     55  46  72 S20         N/A
TRENTON NEB      N/A     54  32  43 S12         N/A
KIT CARSON CO    N/A     59  46  61 MISG        N/A
YUMA CO        FAIR      59  34  38 S15       29.55S
$$



USA.gov is the U.S. government's official web portal to all federal, state and local government web resources and services.